Clarksburg, WV

10:56 AM EDT on July 24, 2017 (GMT -0400)
Benedum

Weather History for KCKB - April, 2014

Change the Weather History Date:

Saturday, April 26, 2014

  Actual Average Record
Temperature  
Mean Temperature 58 °F 56 °F  
Max Temperature 71 °F 68 °F 90 °F (1957)
Min Temperature 44 °F 44 °F 23 °F (1934)
Degree Days  
Heating Degree Days 8 9  
Month to date heating degree days 345  
Since 1 July heating degree days 5027  
Cooling Degree Days 0 0  
Month to date cooling degree days 0  
Year to date cooling degree days 1  
Growing Degree Days 8 (Base 50)    
Moisture  
Dew Point 42 °F    
Average Humidity 61    
Maximum Humidity 86    
Minimum Humidity 35    
Precipitation  
Precipitation 0.00 in 0.12 in 1.69 in (1937)
Month to date precipitation 3.12  
Year to date precipitation 13.71  
Sea Level Pressure  
Sea Level Pressure 29.89 in    
Wind  
Wind Speed 7 mph (WSW)    
Max Wind Speed 21 mph    
Max Gust Speed 31 mph    
Visibility 10 miles    
Events Rain    
T = Trace of Precipitation, MM = Missing Value Source: NWS Daily Summary

Daily Weather History Graph

Daily Weather History Graph

Search for Another Location

Airport or City:

Trip Planner

Search our weather history database for the weather conditions in past years. The results will help you decide how hot, cold, wet, or windy it might be!

Date:

Astronomy

Apr. 26, 2014 Rise Set
Actual Time 6:28 AM EDT 8:09 PM EDT
Civil Twilight 6:00 AM EDT 8:37 PM EDT
Nautical Twilight 5:25 AM EDT 9:12 PM EDT
Astronomical Twilight 4:49 AM EDT 9:49 PM EDT
Moon 4:50 AM EDT (4/26) 5:36 PM EDT (4/26)
Length of Visible Light 14h 37m
Length of Day
13h 40m
Waning Crescent, 8% of the Moon is Illuminated
Apr 26
Waning Crescent
Apr 29
New
May 6
First Quarter
May 14
Full
May 21
Last Quarter

Hourly Weather History & Observations

Time (EDT) Temp. Windchill Dew Point Humidity Pressure Visibility Wind Dir Wind Speed Gust Speed Precip Events Conditions
12:53 AM 46.0 °F 43.9 °F 39.9 °F 79% 29.93 in 10.0 mi SSW 4.6 mph - N/A   Clear
1:53 AM 46.0 °F 43.9 °F 39.9 °F 79% 29.92 in 9.0 mi South 4.6 mph - N/A   Clear
2:53 AM 44.1 °F - 39.9 °F 85% 29.89 in 8.0 mi Calm Calm - N/A   Clear
3:53 AM 44.1 °F - 39.9 °F 85% 29.89 in 7.0 mi Calm Calm - N/A   Scattered Clouds
4:53 AM 45.0 °F 43.5 °F 41.0 °F 86% 29.89 in 8.0 mi South 3.5 mph - N/A   Scattered Clouds
5:53 AM 46.0 °F - 42.1 °F 86% 29.90 in 9.0 mi Calm Calm - N/A   Mostly Cloudy
6:53 AM 46.0 °F 43.1 °F 41.0 °F 83% 29.91 in 8.0 mi South 5.8 mph - N/A   Partly Cloudy
7:53 AM 48.9 °F - 43.0 °F 80% 29.91 in 9.0 mi South 6.9 mph - N/A   Mostly Cloudy
8:53 AM 53.1 °F - 45.0 °F 74% 29.91 in 10.0 mi SW 5.8 mph - N/A   Mostly Cloudy
9:53 AM 57.0 °F - 45.0 °F 64% 29.91 in 10.0 mi WSW 13.8 mph 24.2 mph 0.00 in   Partly Cloudy
10:53 AM 57.9 °F - 44.1 °F 60% 29.91 in 10.0 mi WSW 9.2 mph - 0.00 in Rain Light Rain
11:53 AM 55.9 °F - 46.0 °F 69% 29.91 in 10.0 mi SSW 10.4 mph - 0.00 in Rain Light Rain
12:53 PM 64.0 °F - 46.9 °F 54% 29.88 in 10.0 mi WSW 9.2 mph - 0.00 in   Mostly Cloudy
1:53 PM 66.0 °F - 43.0 °F 43% 29.86 in 10.0 mi WNW 12.7 mph 25.3 mph N/A   Overcast
2:53 PM 68.0 °F - 42.1 °F 39% 29.85 in 10.0 mi West 20.7 mph 28.8 mph N/A   Overcast
3:53 PM 66.9 °F - 42.1 °F 40% 29.84 in 10.0 mi West 13.8 mph 26.5 mph N/A   Overcast
4:53 PM 71.1 °F - 42.1 °F 35% 29.82 in 10.0 mi West 16.1 mph 31.1 mph N/A   Overcast
5:53 PM 70.0 °F - 41.0 °F 35% 29.83 in 10.0 mi West 15.0 mph 24.2 mph N/A   Overcast
6:53 PM 68.0 °F - 42.1 °F 39% 29.84 in 10.0 mi NW 15.0 mph - N/A   Overcast
7:53 PM 64.0 °F - 43.0 °F 46% 29.86 in 10.0 mi North 12.7 mph - N/A   Scattered Clouds
8:53 PM 61.0 °F - 42.1 °F 50% 29.90 in 10.0 mi NNW 8.1 mph - N/A   Overcast
9:53 PM 57.9 °F - 39.9 °F 51% 29.92 in 10.0 mi NNE 9.2 mph - N/A   Mostly Cloudy
10:53 PM 55.9 °F - 37.9 °F 51% 29.96 in 10.0 mi NNE 11.5 mph - N/A   Overcast
11:53 PM 53.1 °F - 36.0 °F 52% 29.97 in 10.0 mi NNE 8.1 mph - N/A   Mostly Cloudy